Location: Bun Machan
(52.1403°N, 7.3744°W)
Time: 07:15:55
(UTC+00:00)

Cosmos 2221 Rocket - Pass Details

Date: 14 July 2020
Orbit: 619 x 649 km, 82.5° (Epoch: 04 August)

Event Time Altitude Azimuth Distance (km) Brightness Sun altitude
Rises 02:08:11 0° 351° (N) 2,917 8.1 -13.5°
Reaches altitude 10° 02:10:28 10° 355° (N) 2,003 7.2 -13.4°
Maximum altitude 02:14:51 61° 76° (ENE) 707 4.0 -13.1°
Drops below altitude 10° 02:19:13 10° 158° (SSE) 1,984 5.8 -12.8°
Enters shadow 02:19:26 - 158° (SSE) 2,072 5.8 -12.8°
